Time,TemperatureF,DewpointF,PressureIn,WindDirection,WindDirectionDegrees,WindSpeedMPH,WindSpeedGustMPH,Humidity,HourlyPrecipIn,Conditions,Clouds,dailyrainin,SoftwareType,DateUTC
2013-05-18 00:02:00,62.0,61.0,-100.00,South,170,0.0,2.0,95,-99.99,,,-99.99,,2013-05-18 05:02:00,
2013-05-18 00:13:00,62.0,61.0,-100.00,South,170,0.0,1.0,97,-99.99,,,-99.99,,2013-05-18 05:13:00,
2013-05-18 00:22:00,62.0,61.0,-100.00,South,170,0.0,1.0,97,-99.99,,,-99.99,,2013-05-18 05:22:00,
2013-05-18 00:32:00,62.0,61.0,-100.00,WNW,295,1.0,2.0,98,-99.99,,,-99.99,,2013-05-18 05:32:00,
2013-05-18 00:42:00,62.0,61.0,-100.00,South,175,0.0,4.0,97,-99.99,,,-99.99,,2013-05-18 05:42:00,
2013-05-18 00:52:00,62.0,61.0,-100.00,South,175,0.0,4.0,97,-99.99,,,-99.99,,2013-05-18 05:52:00,
2013-05-18 01:02:00,62.0,61.0,-100.00,West,280,1.0,3.0,98,-99.99,,,-99.99,,2013-05-18 06:02:00,
2013-05-18 01:11:00,61.0,60.0,-100.00,WNW,295,0.0,2.0,97,-99.99,,,-99.99,,2013-05-18 06:11:00,
2013-05-18 01:22:00,61.0,60.0,-100.00,WNW,295,0.0,2.0,97,-99.99,,,-99.99,,2013-05-18 06:22:00,
2013-05-18 01:32:00,61.0,60.0,-100.00,NW,320,1.0,2.0,99,-99.99,,,-99.99,,2013-05-18 06:32:00,
2013-05-18 01:42:00,60.0,60.0,-100.00,SSE,160,0.0,3.0,99,-99.99,,,-99.99,,2013-05-18 06:42:00,
2013-05-18 01:52:00,60.0,60.0,-100.00,SSE,160,0.0,3.0,99,-99.99,,,-99.99,,2013-05-18 06:52:00,
2013-05-18 02:01:00,60.0,60.0,-100.00,SSW,205,1.0,2.0,98,-99.99,,,-99.99,,2013-05-18 07:01:00,
2013-05-18 02:12:00,60.0,60.0,-100.00,South,185,0.0,2.0,97,-99.99,,,-99.99,,2013-05-18 07:12:00,
2013-05-18 02:21:00,60.0,60.0,-100.00,South,185,0.0,2.0,97,-99.99,,,-99.99,,2013-05-18 07:21:00,
2013-05-18 02:32:00,60.0,59.0,-100.00,WNW,285,0.0,2.0,98,-99.99,,,-99.99,,2013-05-18 07:32:00,
2013-05-18 02:42:00,60.0,59.0,-100.00,West,265,1.0,2.0,98,-99.99,,,-99.99,,2013-05-18 07:42:00,
2013-05-18 02:52:00,60.0,59.0,-100.00,West,265,1.0,2.0,98,-99.99,,,-99.99,,2013-05-18 07:52:00,
2013-05-18 03:01:00,59.0,58.0,-100.00,South,185,0.0,2.0,97,-99.99,,,-99.99,,2013-05-18 08:01:00,
2013-05-18 03:11:00,58.0,58.0,-100.00,SE,125,0.0,3.0,97,-99.99,,,-99.99,,2013-05-18 08:11:00,
2013-05-18 03:21:00,58.0,58.0,-100.00,SE,125,0.0,3.0,97,-99.99,,,-99.99,,2013-05-18 08:21:00,
2013-05-18 03:32:00,59.0,58.0,-100.00,WNW,285,1.0,2.0,97,-99.99,,,-99.99,,2013-05-18 08:32:00,
2013-05-18 03:42:00,58.0,58.0,-100.00,NW,320,0.0,3.0,98,-99.99,,,-99.99,,2013-05-18 08:42:00,
2013-05-18 03:52:00,58.0,58.0,-100.00,NW,320,0.0,3.0,98,-99.99,,,-99.99,,2013-05-18 08:52:00,
2013-05-18 04:02:00,58.0,58.0,-100.00,WNW,295,1.0,2.0,99,-99.99,,,-99.99,,2013-05-18 09:02:00,
2013-05-18 04:11:00,58.0,58.0,-100.00,SSE,155,1.0,2.0,99,-99.99,,,-99.99,,2013-05-18 09:11:00,
2013-05-18 04:22:00,58.0,58.0,-100.00,SSE,155,1.0,2.0,99,-99.99,,,-99.99,,2013-05-18 09:22:00,
2013-05-18 04:33:00,58.0,57.0,-100.00,South,185,0.0,4.0,99,-99.99,,,-99.99,,2013-05-18 09:33:00,
2013-05-18 04:43:00,58.0,57.0,-100.00,West,280,0.0,2.0,99,-99.99,,,-99.99,,2013-05-18 09:43:00,
2013-05-18 04:53:00,58.0,57.0,-100.00,West,280,0.0,2.0,99,-99.99,,,-99.99,,2013-05-18 09:53:00,
2013-05-18 05:03:00,57.0,57.0,-100.00,West,260,1.0,2.0,99,-99.99,,,-99.99,,2013-05-18 10:03:00,
2013-05-18 05:12:00,57.0,-99.9,-100.00,South,190,0.0,2.0,-999,-99.99,,,-99.99,,2013-05-18 10:12:00,
2013-05-18 05:23:00,57.0,-99.9,-100.00,South,190,0.0,2.0,-999,-99.99,,,-99.99,,2013-05-18 10:23:00,
2013-05-18 05:33:00,57.0,-99.9,-100.00,West,265,1.0,3.0,-999,-99.99,,,-99.99,,2013-05-18 10:33:00,
2013-05-18 05:42:00,57.0,-99.9,-100.00,SE,145,0.0,1.0,-999,-99.99,,,-99.99,,2013-05-18 10:42:00,
2013-05-18 05:53:00,57.0,-99.9,-100.00,SE,145,0.0,1.0,-999,-99.99,,,-99.99,,2013-05-18 10:53:00,
2013-05-18 06:03:00,57.0,-99.9,-100.00,South,170,1.0,2.0,-999,-99.99,,,-99.99,,2013-05-18 11:03:00,
2013-05-18 06:12:00,57.0,-99.9,-100.00,NW,320,0.0,2.0,-999,-99.99,,,-99.99,,2013-05-18 11:12:00,
2013-05-18 06:22:00,57.0,-99.9,-100.00,NW,320,0.0,2.0,-999,-99.99,,,-99.99,,2013-05-18 11:22:00,
2013-05-18 06:33:00,57.0,-99.9,-100.00,WNW,290,1.0,4.0,-999,-99.99,,,-99.99,,2013-05-18 11:33:00,
2013-05-18 06:42:00,57.0,-99.9,-100.00,WNW,290,1.0,2.0,-999,-99.99,,,-99.99,,2013-05-18 11:42:00,
2013-05-18 06:52:00,57.0,-99.9,-100.00,WNW,290,1.0,2.0,-999,-99.99,,,-99.99,,2013-05-18 11:52:00,
2013-05-18 07:02:00,57.0,-99.9,-100.00,NW,315,0.0,2.0,-999,-99.99,,,-99.99,,2013-05-18 12:02:00,
2013-05-18 07:12:00,57.0,-99.9,-100.00,NW,315,1.0,3.0,-999,-99.99,,,-99.99,,2013-05-18 12:12:00,
2013-05-18 07:23:00,57.0,-99.9,-100.00,NW,315,1.0,3.0,-999,-99.99,,,-99.99,,2013-05-18 12:23:00,
2013-05-18 07:33:00,58.0,-99.9,-100.00,South,185,1.0,3.0,-999,-99.99,,,-99.99,,2013-05-18 12:33:00,
2013-05-18 07:42:00,58.0,-99.9,-100.00,West,270,1.0,3.0,-999,-99.99,,,-99.99,,2013-05-18 12:42:00,
2013-05-18 07:52:00,58.0,-99.9,-100.00,West,270,1.0,3.0,-999,-99.99,,,-99.99,,2013-05-18 12:52:00,
2013-05-18 08:01:00,59.0,59.0,-100.00,West,265,1.0,3.0,99,-99.99,,,-99.99,,2013-05-18 13:01:00,
2013-05-18 08:11:00,60.0,59.0,-100.00,SSE,150,1.0,3.0,96,-99.99,,,-99.99,,2013-05-18 13:11:00,
2013-05-18 08:21:00,60.0,59.0,-100.00,SSE,150,1.0,3.0,96,-99.99,,,-99.99,,2013-05-18 13:21:00,
2013-05-18 08:33:00,62.0,61.0,-100.00,SSE,165,1.0,4.0,96,-99.99,,,-99.99,,2013-05-18 13:33:00,
2013-05-18 08:43:00,63.0,61.0,-100.00,South,180,1.0,4.0,96,-99.99,,,-99.99,,2013-05-18 13:43:00,
2013-05-18 08:52:00,63.0,61.0,-100.00,South,180,1.0,4.0,96,-99.99,,,-99.99,,2013-05-18 13:52:00,
2013-05-18 09:03:00,64.0,63.0,-100.00,WNW,295,1.0,4.0,96,-99.99,,,-99.99,,2013-05-18 14:03:00,
2013-05-18 09:12:00,65.0,63.0,-100.00,SSE,165,2.0,4.0,95,-99.99,,,-99.99,,2013-05-18 14:12:00,
2013-05-18 09:22:00,65.0,63.0,-100.00,SSE,165,2.0,4.0,95,-99.99,,,-99.99,,2013-05-18 14:22:00,
2013-05-18 09:33:00,67.0,65.0,-100.00,West,265,2.0,5.0,94,-99.99,,,-99.99,,2013-05-18 14:33:00,
2013-05-18 09:42:00,67.0,65.0,-100.00,WSW,255,2.0,4.0,93,-99.99,,,-99.99,,2013-05-18 14:42:00,
2013-05-18 09:54:00,67.0,65.0,-100.00,WSW,255,2.0,4.0,93,-99.99,,,-99.99,,2013-05-18 14:54:00,
2013-05-18 10:03:00,69.0,66.0,-100.00,WNW,285,3.0,5.0,90,-99.99,,,-99.99,,2013-05-18 15:03:00,
2013-05-18 10:13:00,70.0,66.0,-100.00,WNW,300,2.0,6.0,88,-99.99,,,-99.99,,2013-05-18 15:13:00,
2013-05-18 10:23:00,70.0,66.0,-100.00,WNW,300,2.0,6.0,88,-99.99,,,-99.99,,2013-05-18 15:23:00,
2013-05-18 10:33:00,71.0,67.0,-100.00,WSW,245,6.0,10.0,87,-99.99,,,-99.99,,2013-05-18 15:33:00,
2013-05-18 10:43:00,72.0,67.0,-100.00,West,270,3.0,9.0,85,-99.99,,,-99.99,,2013-05-18 15:43:00,
2013-05-18 10:53:00,72.0,67.0,-100.00,West,270,3.0,9.0,85,-99.99,,,-99.99,,2013-05-18 15:53:00,
2013-05-18 11:03:00,74.0,68.0,-100.00,WSW,240,7.0,11.0,82,-99.99,,,-99.99,,2013-05-18 16:03:00,
2013-05-18 11:13:00,75.0,69.0,-100.00,WSW,240,5.0,12.0,81,-99.99,,,-99.99,,2013-05-18 16:13:00,
2013-05-18 11:22:00,75.0,69.0,-100.00,WSW,240,5.0,12.0,81,-99.99,,,-99.99,,2013-05-18 16:22:00,
2013-05-18 11:33:00,76.0,68.0,-100.00,WNW,285,7.0,12.0,77,-99.99,,,-99.99,,2013-05-18 16:33:00,
2013-05-18 11:42:00,77.0,69.0,-100.00,West,270,6.0,11.0,77,-99.99,,,-99.99,,2013-05-18 16:42:00,
2013-05-18 11:52:00,77.0,69.0,-100.00,West,270,6.0,11.0,77,-99.99,,,-99.99,,2013-05-18 16:52:00,
2013-05-18 12:02:00,78.0,69.0,-100.00,West,280,10.0,18.0,74,-99.99,,,-99.99,,2013-05-18 17:02:00,
2013-05-18 12:12:00,78.0,69.0,-100.00,West,280,6.0,16.0,73,-99.99,,,-99.99,,2013-05-18 17:12:00,
2013-05-18 12:22:00,78.0,69.0,-100.00,West,280,6.0,16.0,73,-99.99,,,-99.99,,2013-05-18 17:22:00,
2013-05-18 12:32:00,77.0,68.0,-100.00,West,265,6.0,16.0,73,-99.99,,,-99.99,,2013-05-18 17:32:00,
2013-05-18 12:42:00,77.0,68.0,-100.00,WSW,255,8.0,16.0,73,-99.99,,,-99.99,,2013-05-18 17:42:00,
2013-05-18 12:52:00,77.0,68.0,-100.00,WSW,255,8.0,16.0,73,-99.99,,,-99.99,,2013-05-18 17:52:00,
2013-05-18 13:01:00,78.0,69.0,-100.00,West,275,9.0,18.0,74,-99.99,,,-99.99,,2013-05-18 18:01:00,
2013-05-18 13:12:00,78.0,69.0,-100.00,WNW,285,7.0,17.0,73,-99.99,,,-99.99,,2013-05-18 18:12:00,
2013-05-18 13:21:00,78.0,69.0,-100.00,WNW,285,7.0,17.0,73,-99.99,,,-99.99,,2013-05-18 18:21:00,
2013-05-18 13:32:00,78.0,68.0,-100.00,West,280,8.0,14.0,72,-99.99,,,-99.99,,2013-05-18 18:32:00,
2013-05-18 13:42:00,78.0,68.0,-100.00,West,280,6.0,14.0,72,-99.99,,,-99.99,,2013-05-18 18:42:00,
2013-05-18 13:52:00,78.0,68.0,-100.00,West,280,6.0,14.0,72,-99.99,,,-99.99,,2013-05-18 18:52:00,
2013-05-18 14:00:00,81.0,69.0,-100.00,West,275,6.0,16.0,67,-99.99,,,-99.99,,2013-05-18 19:00:00,
2013-05-18 14:02:00,79.0,68.0,-100.00,West,275,7.0,16.0,71,-99.99,,,-99.99,,2013-05-18 19:02:00,
2013-05-18 14:12:00,78.0,68.0,-100.00,West,280,8.0,13.0,71,-99.99,,,-99.99,,2013-05-18 19:12:00,
2013-05-18 14:22:00,78.0,68.0,-100.00,West,280,8.0,13.0,71,-99.99,,,-99.99,,2013-05-18 19:22:00,
2013-05-18 14:32:00,80.0,69.0,-100.00,West,280,9.0,14.0,69,-99.99,,,-99.99,,2013-05-18 19:32:00,
2013-05-18 14:42:00,81.0,69.0,-100.00,West,275,6.0,16.0,67,-99.99,,,-99.99,,2013-05-18 19:42:00,
2013-05-18 14:52:00,81.0,69.0,-100.00,West,275,6.0,16.0,67,-99.99,,,-99.99,,2013-05-18 19:52:00,
2013-05-18 15:11:00,81.0,69.0,-100.00,West,280,6.0,11.0,69,-99.99,,,-99.99,,2013-05-18 20:11:00,
2013-05-18 15:22:00,81.0,69.0,-100.00,West,280,6.0,11.0,69,-99.99,,,-99.99,,2013-05-18 20:22:00,
2013-05-18 15:32:00,82.0,69.0,-100.00,West,260,5.0,11.0,65,-99.99,,,-99.99,,2013-05-18 20:32:00,
2013-05-18 15:42:00,81.0,69.0,-100.00,West,280,6.0,11.0,66,-99.99,,,-99.99,,2013-05-18 20:42:00,
2013-05-18 15:52:00,81.0,69.0,-100.00,West,280,6.0,11.0,66,-99.99,,,-99.99,,2013-05-18 20:52:00,
2013-05-18 16:01:00,82.0,69.0,-100.00,West,265,6.0,14.0,65,-99.99,,,-99.99,,2013-05-18 21:01:00,
2013-05-18 16:12:00,83.0,69.0,-100.00,West,265,7.0,11.0,64,-99.99,,,-99.99,,2013-05-18 21:12:00,
2013-05-18 16:21:00,83.0,69.0,-100.00,West,265,7.0,11.0,64,-99.99,,,-99.99,,2013-05-18 21:21:00,
2013-05-18 16:32:00,83.0,68.0,-100.00,WNW,290,6.0,13.0,60,-99.99,,,-99.99,,2013-05-18 21:32:00,
2013-05-18 16:43:00,83.0,69.0,-100.00,West,280,5.0,13.0,61,-99.99,,,-99.99,,2013-05-18 21:43:00,
2013-05-18 16:53:00,83.0,69.0,-100.00,West,280,5.0,13.0,61,-99.99,,,-99.99,,2013-05-18 21:53:00,
2013-05-18 17:03:00,82.0,69.0,-100.00,WNW,290,7.0,13.0,63,-99.99,,,-99.99,,2013-05-18 22:03:00,
2013-05-18 17:12:00,83.0,69.0,-100.00,WNW,285,5.0,13.0,63,-99.99,,,-99.99,,2013-05-18 22:12:00,
2013-05-18 17:23:00,83.0,69.0,-100.00,WNW,285,5.0,13.0,63,-99.99,,,-99.99,,2013-05-18 22:23:00,
2013-05-18 17:33:00,82.0,70.0,-100.00,West,280,4.0,8.0,66,-99.99,,,-99.99,,2013-05-18 22:33:00,
2013-05-18 17:42:00,82.0,70.0,-100.00,West,280,5.0,9.0,66,-99.99,,,-99.99,,2013-05-18 22:42:00,
2013-05-18 17:52:00,82.0,70.0,-100.00,West,280,5.0,9.0,66,-99.99,,,-99.99,,2013-05-18 22:52:00,
2013-05-18 18:01:00,83.0,71.0,-100.00,WNW,285,6.0,10.0,67,-99.99,,,-99.99,,2013-05-18 23:01:00,
2013-05-18 18:12:00,82.0,70.0,-100.00,West,280,7.0,13.0,67,-99.99,,,-99.99,,2013-05-18 23:12:00,
2013-05-18 18:22:00,82.0,70.0,-100.00,West,280,7.0,13.0,67,-99.99,,,-99.99,,2013-05-18 23:22:00,
2013-05-18 18:32:00,81.0,70.0,-100.00,WNW,285,5.0,11.0,69,-99.99,,,-99.99,,2013-05-18 23:32:00,
2013-05-18 18:41:00,81.0,70.0,-100.00,West,265,6.0,10.0,70,-99.99,,,-99.99,,2013-05-18 23:41:00,
2013-05-18 18:52:00,81.0,70.0,-100.00,West,265,6.0,10.0,70,-99.99,,,-99.99,,2013-05-18 23:52:00,
2013-05-18 19:01:00,81.0,70.0,-100.00,West,270,6.0,11.0,70,-99.99,,,-99.99,,2013-05-19 00:01:00,
2013-05-18 19:12:00,80.0,70.0,-100.00,WNW,290,7.0,15.0,71,-99.99,,,-99.99,,2013-05-19 00:12:00,
2013-05-18 19:21:00,80.0,70.0,-100.00,WNW,290,7.0,15.0,71,-99.99,,,-99.99,,2013-05-19 00:21:00,
2013-05-18 19:32:00,80.0,70.0,-100.00,West,270,4.0,10.0,74,-99.99,,,-99.99,,2013-05-19 00:32:00,
2013-05-18 19:41:00,79.0,71.0,-100.00,West,275,6.0,10.0,75,-99.99,,,-99.99,,2013-05-19 00:41:00,
2013-05-18 19:51:00,79.0,71.0,-100.00,West,275,6.0,10.0,75,-99.99,,,-99.99,,2013-05-19 00:51:00,
2013-05-18 20:01:00,79.0,71.0,-100.00,West,280,4.0,11.0,76,-99.99,,,-99.99,,2013-05-19 01:01:00,
2013-05-18 20:11:00,79.0,70.0,-100.00,West,275,5.0,9.0,76,-99.99,,,-99.99,,2013-05-19 01:11:00,
2013-05-18 20:21:00,79.0,70.0,-100.00,West,275,5.0,9.0,76,-99.99,,,-99.99,,2013-05-19 01:21:00,
2013-05-18 20:32:00,78.0,70.0,-100.00,West,275,5.0,9.0,77,-99.99,,,-99.99,,2013-05-19 01:32:00,
2013-05-18 20:42:00,78.0,71.0,-100.00,West,270,4.0,8.0,78,-99.99,,,-99.99,,2013-05-19 01:42:00,
2013-05-18 20:52:00,78.0,71.0,-100.00,West,270,4.0,8.0,78,-99.99,,,-99.99,,2013-05-19 01:52:00,
2013-05-18 21:01:00,78.0,70.0,-100.00,West,275,5.0,11.0,79,-99.99,,,-99.99,,2013-05-19 02:01:00,
2013-05-18 21:11:00,77.0,70.0,-100.00,West,260,4.0,9.0,79,-99.99,,,-99.99,,2013-05-19 02:11:00,
2013-05-18 21:21:00,77.0,70.0,-100.00,West,260,4.0,9.0,79,-99.99,,,-99.99,,2013-05-19 02:21:00,
2013-05-18 21:32:00,76.0,70.0,-100.00,West,275,4.0,8.0,81,-99.99,,,-99.99,,2013-05-19 02:32:00,
2013-05-18 21:42:00,76.0,71.0,-100.00,West,275,2.0,7.0,83,-99.99,,,-99.99,,2013-05-19 02:42:00,
2013-05-18 21:52:00,76.0,71.0,-100.00,West,275,2.0,7.0,83,-99.99,,,-99.99,,2013-05-19 02:52:00,
2013-05-18 22:01:00,75.0,70.0,-100.00,West,265,5.0,9.0,85,-99.99,,,-99.99,,2013-05-19 03:01:00,
2013-05-18 22:11:00,75.0,70.0,-100.00,West,265,4.0,10.0,85,-99.99,,,-99.99,,2013-05-19 03:11:00,
2013-05-18 22:22:00,75.0,70.0,-100.00,West,265,4.0,10.0,85,-99.99,,,-99.99,,2013-05-19 03:22:00,
2013-05-18 22:33:00,75.0,70.0,-100.00,West,275,3.0,10.0,86,-99.99,,,-99.99,,2013-05-19 03:33:00,
2013-05-18 22:42:00,75.0,70.0,-100.00,West,275,5.0,9.0,86,-99.99,,,-99.99,,2013-05-19 03:42:00,
2013-05-18 22:53:00,75.0,70.0,-100.00,West,275,5.0,9.0,86,-99.99,,,-99.99,,2013-05-19 03:53:00,
2013-05-18 23:00:00,74.0,70.0,-100.00,West,280,4.0,6.0,88,-99.99,,,-99.99,,2013-05-19 04:00:00,
2013-05-18 23:02:00,75.0,71.0,-100.00,West,280,4.0,8.0,87,-99.99,,,-99.99,,2013-05-19 04:02:00,
2013-05-18 23:12:00,75.0,71.0,-100.00,West,280,3.0,7.0,87,-99.99,,,-99.99,,2013-05-19 04:12:00,
2013-05-18 23:23:00,75.0,71.0,-100.00,West,280,3.0,7.0,87,-99.99,,,-99.99,,2013-05-19 04:23:00,
2013-05-18 23:33:00,74.0,70.0,-100.00,WNW,290,3.0,8.0,87,-99.99,,,-99.99,,2013-05-19 04:33:00,
2013-05-18 23:42:00,74.0,70.0,-100.00,West,280,4.0,6.0,88,-99.99,,,-99.99,,2013-05-19 04:42:00,
2013-05-18 23:52:00,74.0,70.0,-100.00,West,280,4.0,6.0,88,-99.99,,,-99.99,,2013-05-19 04:52:00,